Location: *
(57.8420°S, 159.8600°W)
Time: 05:28:02
(UTC+00:00)

Cosmos 1553 Rocket - Pass Details

Date: 18 May 2021
Orbit: 942 x 1007 km, 82.9° (Epoch: 20 June)

Event Time Altitude Azimuth Distance (km) Brightness Sun altitude
Rises 04:49:31 0° 193° (SSW) 3,671 7.1 -18.3°
Reaches altitude 10° 04:52:03 10° 195° (SSW) 2,714 6.4 -18.6°
Maximum altitude 04:58:13 73° 277° (W) 1,005 4.2 -19.4°
Drops below altitude 10° 05:04:18 10° 0° (N) 2,675 6.3 -20.2°
Sets 05:06:46 0° 2° (N) 3,615 7.0 -20.6°
